Regional Weather Roundup
Issued by NWS

Home | Current Version | Previous Version | Graphics & Text | Print | Product List | Glossary On
Versions: 1 2 3 4 5 6 7 8 9 10 11 12 13 14 15 16 17 18 19 20 21 22 23 24 25 26 27 28 29 30 31 32 33 34 35 36 37 38 39 40 41 42 43 44 45 46 47 48 49 50
000
ASUS45 KBOI 070310
RWRID

IDAHO REGIONAL WEATHER ROUNDUP
NATIONAL WEATHER SERVICE BOISE ID
900 PM MDT MON JUL 06 2015

NOTE: "FAIR" INDICATES FEW OR NO CLOUDS BELOW 12000 FEET
WITH NO SIGNIFICANT WEATHER AND/OR OBSTRUCTIONS TO VISIBILITY

IDZ012-014-070400-
SOUTHWEST IDAHO


CITY           SKY/WX    TMP DP  RH WIND       PRES   REMARKS
BOISE          PTCLDY    88  49  25 CALM      29.93S
CALDWELL       PTCLDY    88  50  27 SW5       29.91F
MOUNTAIN HOME  PTCLDY    86  48  26 NW7       29.94F
$$

IDZ016-017-070400-
SOUTHCENTRAL IDAHO


CITY           SKY/WX    TMP DP  RH WIND       PRES   REMARKS
BURLEY         PTCLDY    77  51  40 N8        30.02S
JEROME         MOCLDY    73  59  61 CALM      30.03S
TWIN FALLS     PTCLDY    81  50  33 CALM      30.01F
$$

IDZ019>023-070400-
SOUTHEAST IDAHO


CITY           SKY/WX    TMP DP  RH WIND       PRES   REMARKS
IDAHO FALLS    PTCLDY    69  60  73 CALM      30.10R
POCATELLO      PTCLDY    74  49  41 E5        30.07S
REXBURG        PTCLDY    71  55  56 SW6       30.10R
$$

IDZ006-010-011-018-031-032-070400-
CENTRAL IDAHO MOUNTAINS


CITY           SKY/WX    TMP DP  RH WIND       PRES   REMARKS
MCCALL         CLEAR     78  39  24 NW6       30.08S
HAILEY         MOCLDY    66  57  72 CALM      30.13F
STANLEY          N/A     68  46  45 SW5       30.22S
SALMON         PTCLDY    79  36  21 NW5       30.00R
CHALLIS        MOCLDY    68  56  65 NW5       30.11S
$$

IDZ002-004-006-007-026-070400-
NORTHERN IDAHO


CITY           SKY/WX    TMP DP  RH WIND       PRES   REMARKS
LEWISTON       CLEAR     93  40  15 E6        29.84F
LOWELL           N/A     77  53  43 CALM      29.88R
COEUR D`ALENE  CLEAR     84  45  24 NE7       29.92S
MULLAN PASS    PTCLDY    65  36  34 NW3       30.19F
$$



USA.gov is the U.S. government's official web portal to all federal, state and local government web resources and services.